| time (UTC) | temp F | wind direction | speed MPH | gust MPH | rain 1hr in | rain 24hr in | rain mn in | humidity % | barometer mb |
| 20260505010037 | 72 | 280 | 5.0 | 13.0 | 0.00 | 0.00 | 0.00 | 38 | 996.8 |
| 20260505004544 | 73 | 337 | 6.0 | 11.0 | 0.00 | 0.00 | 0.00 | 36 | 996.4 |
| 20260505003037 | 74 | 243 | 4.0 | 8.0 | 0.00 | 0.00 | 0.00 | 35 | 995.3 |
| 20260505001537 | 75 | 236 | 4.0 | 13.0 | 0.00 | 0.00 | 0.00 | 33 | 995.2 |
| 20260505000035 | 75 | 274 | 7.0 | 12.0 | 0.00 | 0.00 | 0.00 | 33 | 995.3 |
| 20260504234535 | 75 | 255 | 8.0 | 15.0 | 0.00 | 0.00 | 0.00 | 33 | 995.5 |
| 20260504233043 | 76 | 251 | 11.0 | 21.0 | 0.00 | 0.00 | 0.00 | 33 | 995.9 |
| 20260504231539 | 77 | 216 | 14.0 | 27.0 | 0.00 | 0.00 | 0.00 | 34 | 996.1 |
| 20260504230037 | 78 | 261 | 9.0 | 19.0 | 0.00 | 0.00 | 0.00 | 30 | 995.7 |
| 20260504224535 | 78 | 262 | 9.0 | 20.0 | 0.00 | 0.00 | 0.00 | 30 | 995.9 |
| 20260504223036 | 79 | 252 | 11.0 | 26.0 | 0.00 | 0.00 | 0.00 | 29 | 996.0 |
| 20260504221546 | 79 | 239 | 12.0 | 27.0 | 0.00 | 0.00 | 0.00 | 29 | 996.1 |
| 20260504220058 | 79 | 248 | 13.0 | 25.0 | 0.00 | 0.00 | 0.00 | 27 | 996.3 |
| 20260504214539 | 79 | 267 | 10.0 | 23.0 | 0.00 | 0.00 | 0.00 | 28 | 996.6 |
| 20260504213036 | 79 | 257 | 12.0 | 22.0 | 0.00 | 0.00 | 0.00 | 27 | 996.6 |
| 20260504211535 | 78 | 243 | 10.0 | 21.0 | 0.00 | 0.00 | 0.00 | 29 | 996.7 |
| 20260504210032 | 78 | 262 | 14.0 | 22.0 | 0.00 | 0.00 | 0.00 | 28 | 996.9 |
| 20260504204556 | 78 | 266 | 10.0 | 21.0 | 0.00 | 0.00 | 0.00 | 28 | 997.1 |
| 20260504203038 | 78 | 293 | 11.0 | 22.0 | 0.00 | 0.00 | 0.00 | 28 | 997.3 |
| 20260504201537 | 78 | 266 | 8.0 | 22.0 | 0.00 | 0.00 | 0.00 | 28 | 997.4 |
| 20260504200042 | 78 | 251 | 10.0 | 21.0 | 0.00 | 0.00 | 0.00 | 28 | 997.4 |
| 20260504194540 | 77 | 262 | 8.0 | 19.0 | 0.00 | 0.00 | 0.00 | 29 | 997.5 |
| 20260504193041 | 77 | 233 | 8.0 | 23.0 | 0.00 | 0.00 | 0.00 | 27 | 997.6 |
| 20260504191541 | 77 | 233 | 8.0 | 20.0 | 0.00 | 0.00 | 0.00 | 28 | 997.9 |
| 20260504190039 | 77 | 232 | 9.0 | 24.0 | 0.00 | 0.00 | 0.00 | 29 | 997.7 |
| 20260504184537 | 76 | 278 | 7.0 | 22.0 | 0.00 | 0.00 | 0.00 | 29 | 998.0 |
| 20260504183041 | 76 | 216 | 10.0 | 23.0 | 0.00 | 0.00 | 0.00 | 29 | 998.4 |
| 20260504181543 | 75 | 264 | 13.0 | 23.0 | 0.00 | 0.00 | 0.00 | 29 | 998.3 |
| 20260504180039 | 75 | 222 | 8.0 | 25.0 | 0.00 | 0.00 | 0.00 | 29 | 998.4 |
| 20260504174538 | 75 | 257 | 9.0 | 20.0 | 0.00 | 0.00 | 0.00 | 29 | 998.5 |
| 20260504173035 | 74 | 250 | 14.0 | 24.0 | 0.00 | 0.00 | 0.00 | 27 | 998.7 |
| 20260504171535 | 74 | 226 | 9.0 | 21.0 | 0.00 | 0.00 | 0.00 | 28 | 999.0 |
| 20260504081548 | 49 | 218 | 1.0 | 3.0 | 0.00 | 0.00 | 0.00 | 79 | 1003.1 |
| 20260504044535 | 54 | 247 | 2.0 | 2.0 | 0.00 | 0.00 | 0.00 | 66 | 1004.4 |
| 20260504043040 | 54 | 221 | 2.0 | 3.0 | 0.00 | 0.00 | 0.00 | 66 | 1004.3 |
| 20260504041540 | 55 | 221 | 1.0 | 3.0 | 0.00 | 0.00 | 0.00 | 64 | 1004.4 |
| 20260504040041 | 55 | 226 | 2.0 | 3.0 | 0.00 | 0.00 | 0.00 | 63 | 1004.5 |
| 20260504034538 | 55 | 225 | 1.0 | 2.0 | 0.00 | 0.00 | 0.00 | 64 | 1004.6 |
| 20260504033036 | 55 | 219 | 1.0 | 2.0 | 0.00 | 0.00 | 0.00 | 64 | 1004.8 |
| 20260504031535 | 55 | 0 | 0.0 | 1.0 | 0.00 | 0.00 | 0.00 | 65 | 1004.8 |
| 20260504030035 | 55 | 0 | 0.0 | 1.0 | 0.00 | 0.00 | 0.00 | 64 | 1004.9 |
| 20260504024534 | 56 | 219 | 0.0 | 1.0 | 0.00 | 0.00 | 0.00 | 62 | 1004.8 |
| 20260504023040 | 57 | 0 | 0.0 | 1.0 | 0.00 | 0.00 | 0.00 | 59 | 1004.8 |
| 20260504021538 | 58 | 0 | 0.0 | 0.0 | 0.00 | 0.00 | 0.00 | 58 | 1004.8 |
| 20260504020053 | 59 | 0 | 0.0 | 1.0 | 0.00 | 0.00 | 0.00 | 56 | 1004.7 |
| 20260504014553 | 60 | 0 | 0.0 | 0.0 | 0.00 | 0.00 | 0.00 | 53 | 1004.5 |
| 20260504013044 | 62 | 0 | 0.0 | 1.0 | 0.00 | 0.00 | 0.00 | 50 | 1004.7 |
| 20260504011540 | 63 | 0 | 0.0 | 2.0 | 0.00 | 0.00 | 0.00 | 47 | 1004.6 |